Regional Weather Roundup
Issued by NWS

Home | Current Version | Previous Version | Text Only | Print | Product List | Glossary Off
Versions: 1 2 3 4 5 6 7 8 9 10 11 12 13 14 15 16 17 18 19 20 21 22 23 24 25 26 27 28 29 30 31 32 33 34 35 36 37 38 39 40 41 42 43 44 45 46 47 48 49 50

000
ASUS43 KLOT 071903
RWRIL

ILLINOIS REGIONAL WEATHER ROUNDUP
NATIONAL WEATHER SERVICE CHICAGO/ROMEOVILLE IL
100 PM CST SUN FEB 07 2016

NOTE: "FAIR" INDICATES FEW OR NO CLOUDS BELOW 12,000 FEET WITH NO
SIGNIFICANT WEATHER AND/OR OBSTRUCTIONS TO VISIBILITY.

* THESE STATIONS ARE NOT UNDER NWS QUALITY CONTROL. THEY ALSO MAY NOT
  REPORT WEATHER SUCH AS PRECIPITATION OR FOG.

ILZ001-002-007-009-015-016-024-072000-
NORTHWEST ILLINOIS

CITY           SKY/WX    TMP DP  RH WIND       PRES   REMARKS
MOLINE         SUNNY     47  29  49 W15G25    29.79F
STERLING*      SUNNY     46  34  61 W18       29.73F
$$

ILZ003-004-008-010-011-017-018-072000-
NORTH CENTRAL ILLINOIS

CITY           SKY/WX    TMP DP  RH WIND       PRES   REMARKS
ROCKFORD       CLOUDY    44  32  62 W12       29.73F
FREEPORT*      SUNNY     42  32  68 W13G20    29.74F
DE KALB*       CLOUDY    39  32  76 W18G25    29.75R WCI  30
$$

ILZ005-006-012>014-019>023-072000-
NORTHEAST ILLINOIS

CITY           SKY/WX    TMP DP  RH WIND       PRES   REMARKS
CHICAGO-OHARE  PTSUNNY   42  30  62 SW18G25   29.72F
CHICAGO-MIDWAY PTSUNNY   45  30  55 SW17      29.74F
AURORA         CLOUDY    42  32  67 SW16      29.76S
LANSING*       PTSUNNY   46  32  59 SW15G23   29.75F
WAUKEGAN       CLOUDY    40  30  67 SW15G26   29.69F
DUPAGE AIRPORT CLOUDY    42  30  62 SW18      29.74F
WHEELING       CLOUDY    42  30  62 W16G23    29.73F
NORTHERLY ISL    N/A     43  28  56 SW13        N/A
$$

LMZ740>746-072000-
SOUTHERN LAKE MICHIGAN

STATION/POSITION SKY/WX   TEMP    WIND        PRES    VSBY  WAVE
                          AIR SEA DIR/SP/G                  HT/PER
                          (F)     (DEG/KT/KT) (MB)    (MI)  (FT/S)
HARRISON CRIB              43     230/ 19/ 23   N/A
BURNHAM HARBOR             44     260/  8/ 19   N/A
CALUMET HARBOR             43     200/ 11/ 20 1006.9F
BURNS HARBOR               43     230/ 19/ 28 1008.8F
MICHIGAN CITY              43     190/ 22/ 24   N/A
$$

ILZ025>027-034>036-040-047-049-050-058-095>099-072000-
WEST-CENTRAL ILLINOIS

CITY           SKY/WX    TMP DP  RH WIND       PRES   REMARKS
QUINCY         CLOUDY    47  31  53 W16       29.87F
MACOMB*        MOSUNNY   46  33  62 W18       29.87F
$$

ILZ028>032-037-038-041>044-048-051>054-059>061-072000-
CENTRAL ILLINOIS

CITY           SKY/WX    TMP DP  RH WIND       PRES   REMARKS
BLOOMINGTON    MOSUNNY   47  33  58 W17G29    29.82F
DECATUR        SUNNY     49  31  49 W20G31    29.85F
PEORIA         MOSUNNY   45  30  55 W16       29.83S
LINCOLN*       MOSUNNY   47  33  57 W9G18     29.84S
SPRINGFIELD    CLOUDY    48  33  56 W21       29.86F
TAYLORVILLE    NOT AVBL
$$

ILZ033-039-045-046-055>057-062-063-072000-
EAST-CENTRAL ILLINOIS

CITY           SKY/WX    TMP DP  RH WIND       PRES   REMARKS
CHAMPAIGN      SUNNY     49  33  54 SW26G37   29.84F
MATTOON        SUNNY     51  28  41 SW17G28   29.85F
$$

ILZ079-100>102-072000-
SOUTHWEST ILLINOIS

CITY           SKY/WX    TMP DP  RH WIND       PRES   REMARKS
ALTON          PTSUNNY   50  30  46 W20       29.91F
BELLEVILLE     CLOUDY    55  28  35 W18G25    29.90F
CAHOKIA*       PTSUNNY   54  28  36 W12G24    29.91F
SPARTA*        SUNNY     55  28  34 SW12G25   29.92F
$$

ILZ064>066-069>071-074>076-080>082-084>086-088>090-092>094-072000-
SOUTH-CENTRAL ILLINOIS

CITY           SKY/WX    TMP DP  RH WIND       PRES   REMARKS
CARBONDALE     SUNNY     56  27  32 SW22G29   29.94F
MT. VERNON     SUNNY     55  32  41 S24       29.92F
CENTRALIA*     SUNNY     56  33  42 SW16G24   29.89F
SALEM*         SUNNY     56  30  37 SW22G28   29.89F
$$

ILZ067-068-072-073-078-083-087-091-072000-
SOUTHEAST ILLINOIS

CITY           SKY/WX    TMP DP  RH WIND       PRES   REMARKS
LAWRENCEVILLE  SUNNY     55  30  38 SW24G33   29.91F
HARRISBURG*    SUNNY     54  31  42 SW21G26   29.96F
ROBINSON*      SUNNY     53  32  43 SW21G30   29.91F
CARMI*         SUNNY     55  31  40 SW25G31   29.94F
$$

ABBREVIATIONS USED IN REMARKS
   TC - TEMPERATURE IN CELSIUS
  WCI - WIND CHILL INDEX
   HX - HEAT INDEX
  VSB - VISIBILITY
$$




USA.gov is the U.S. government's official web portal to all federal, state and local government web resources and services.